Tracking 30995 objects as of 7-Jul-2025
HD Live streaming from Space Station
objects crossing your sky now

STARLINK-4727

Track STARLINK-4727 now!
10-day predictions
STARLINK-4727 is classified as:


NORAD ID: 53803
Int'l Code: 2022-111AG
Perigee: 546.2 km
Apogee: 547.6 km
Inclination: 53.2 °
Period: 95.4 minutes
Semi major axis: 6917 km
RCS: Unknown
Launch date: September 11, 2022
Source: United States (US)
Launch site: AIR FORCE EASTERN TEST RANGE (AFETR)
Your satellite tracking list
INMARSAT 4-F2
Track 1 satellite(s)




NASA's NSSDC Master Catalog

Two Line Element Set (TLE):
1 53803U 22111AG  25187.45894375  .00000389  00000-0  42507-4 0  9996
2 53803  53.2169 274.5366 0001026  90.9027 269.2082 15.08837905156856
Source of the keplerian elements: AFSPC